Weather History for Burbank, CA

Change the Weather History Date:

Saturday, September 28, 2013

  Actual Average Record
Temperature  
Mean Temperature 74 °F 71 °F  
Max Temperature 91 °F 83 °F 106 °F (1963)
Min Temperature 57 °F 58 °F 45 °F (2005)
Degree Days  
Heating Degree Days 0 1  
Month to date heating degree days 0 1  
Since 1 July heating degree days 0 1  
Cooling Degree Days 9 6  
Month to date cooling degree days 387 238  
Year to date cooling degree days 1816 1120  
Growing Degree Days 24 (Base 50)    
Moisture  
Dew Point 25 °F    
Average Humidity 21    
Maximum Humidity 34    
Minimum Humidity 7    
Precipitation  
Precipitation 0.00 in 0.01 in 0.31 in (1967)
Month to date precipitation 0.00 0.20  
Year to date precipitation 2.61 12.84  
Since 1 July precipitation 0.01 0.29  
Sea Level Pressure  
Sea Level Pressure 29.97 in    
Wind  
Wind Speed 3 mph (West)    
Max Wind Speed 15 mph    
Max Gust Speed 17 mph    
Visibility 10 miles    
Events      
T = Trace of Precipitation, MM = Missing Value Source: NWS Daily Summary

Daily Weather History Graph

Daily Weather History Graph

Search for Another Location

Airport:

Trip Planner

Search our weather history database for the weather conditions in past years. The results will help you decide how hot, cold, wet, or windy it might be!

Date:

Astronomy

Sep. 28, 2013 Rise Set
Actual Time 6:46 AM PDT 6:41 PM PDT
Civil Twilight 6:21 AM PDT 7:06 PM PDT
Nautical Twilight 5:51 AM PDT 7:35 PM PDT
Astronomical Twilight 5:22 AM PDT 8:04 PM PDT
Moon 12:51 AM PDT (9/28) 2:50 PM PDT (9/28)
Length of Visible Light 12h 45m
Length of Day
11h 55m
Waning Crescent, 35% of the Moon is Illuminated
Sep 28
Waning Crescent
Oct 4
New
Oct 11
First Quarter
Oct 18
Full
Oct 26
Last Quarter

Hourly Weather History & Observations

Time (PDT) Temp. Dew Point Humidity Pressure Visibility Wind Dir Wind Speed Gust Speed Precip Events Conditions
12:53 AM 64.0 °F 36.0 °F 35% 29.96 in 10.0 mi Calm Calm - N/A   Clear
1:53 AM 63.0 °F 28.0 °F 27% 29.96 in 10.0 mi Calm Calm - N/A   Clear
2:53 AM 62.1 °F 26.1 °F 25% 29.96 in 10.0 mi Calm Calm - N/A   Clear
3:53 AM 60.1 °F 27.0 °F 28% 29.96 in 10.0 mi Calm Calm - N/A   Clear
4:53 AM 59.0 °F 26.1 °F 28% 29.97 in 10.0 mi Calm Calm - N/A   Clear
5:53 AM 57.0 °F 28.0 °F 33% 29.98 in 10.0 mi NNW 3.5 mph - N/A   Clear
6:53 AM 57.9 °F 25.0 °F 28% 29.98 in 10.0 mi Calm Calm - N/A   Clear
7:53 AM 62.1 °F 25.0 °F 24% 29.99 in 10.0 mi Calm Calm - N/A   Clear
8:53 AM 69.1 °F 23.0 °F 18% 30.01 in 10.0 mi Calm Calm - N/A   Clear
9:53 AM 75.9 °F 24.1 °F 15% 30.01 in 10.0 mi Calm Calm - N/A   Clear
10:53 AM 80.1 °F 21.9 °F 12% 30.00 in 10.0 mi Calm Calm - N/A   Clear
11:53 AM 84.9 °F 19.9 °F 9% 30.00 in 10.0 mi Calm Calm - N/A   Clear
12:53 PM 87.1 °F 19.9 °F 8% 29.98 in 10.0 mi SW 5.8 mph - N/A   Clear
1:53 PM 90.0 °F 18.0 °F 7% 29.95 in 10.0 mi Calm Calm - N/A   Clear
2:53 PM 90.0 °F 21.9 °F 8% 29.93 in 10.0 mi Variable 3.5 mph - N/A   Clear
3:53 PM 88.0 °F 21.0 °F 9% 29.93 in 10.0 mi South 10.4 mph - N/A   Clear
4:53 PM 87.1 °F 21.0 °F 9% 29.93 in 10.0 mi SSW 6.9 mph - N/A   Clear
5:53 PM 84.9 °F 23.0 °F 10% 29.94 in 10.0 mi South 6.9 mph - N/A   Clear
6:53 PM 82.9 °F 24.1 °F 12% 29.95 in 10.0 mi Calm Calm - N/A   Clear
7:53 PM 80.1 °F 25.0 °F 13% 29.96 in 10.0 mi NW 4.6 mph - N/A   Clear
8:53 PM 75.9 °F 25.0 °F 15% 29.98 in 10.0 mi WNW 5.8 mph - N/A   Clear
9:53 PM 73.9 °F 27.0 °F 18% 29.99 in 10.0 mi WNW 5.8 mph - N/A   Clear
10:53 PM 73.0 °F 27.0 °F 18% 30.00 in 10.0 mi WNW 5.8 mph - N/A   Clear
11:53 PM 69.1 °F 28.0 °F 22% 30.01 in 10.0 mi NNW 3.5 mph - N/A   Clear